| time (UTC) | temp F | wind direction | speed MPH | gust MPH | rain 1hr in | rain 24hr in | rain mn in | humidity % | barometer mb |
| 20260504225542 | 58 | 216 | 3.0 | 7.0 | 0.00 | 0.00 | 0.00 | 77 | 1014.2 |
| 20260504225037 | 58 | 198 | 4.0 | 7.0 | 0.00 | 0.00 | 0.00 | 77 | 1014.1 |
| 20260504224542 | 58 | 242 | 4.0 | 7.0 | 0.00 | 0.00 | 0.00 | 77 | 1014.2 |
| 20260504224037 | 59 | 228 | 3.0 | 7.0 | 0.00 | 0.00 | 0.00 | 78 | 1014.2 |
| 20260504223537 | 58 | 209 | 3.0 | 7.0 | 0.00 | 0.00 | 0.00 | 76 | 1014.2 |
| 20260504223054 | 58 | 256 | 4.0 | 7.0 | 0.00 | 0.00 | 0.00 | 75 | 1014.2 |
| 20260504222537 | 59 | 248 | 4.0 | 7.0 | 0.00 | 0.00 | 0.00 | 75 | 1014.3 |
| 20260504222038 | 59 | 242 | 3.0 | 6.0 | 0.00 | 0.00 | 0.00 | 75 | 1014.4 |
| 20260504221552 | 59 | 250 | 3.0 | 8.0 | 0.00 | 0.00 | 0.00 | 75 | 1014.4 |
| 20260504221037 | 59 | 227 | 4.0 | 8.0 | 0.00 | 0.00 | 0.00 | 76 | 1014.4 |
| 20260504220537 | 60 | 205 | 4.0 | 7.0 | 0.00 | 0.00 | 0.00 | 77 | 1014.4 |
| 20260504220052 | 59 | 188 | 3.0 | 7.0 | 0.00 | 0.00 | 0.00 | 77 | 1014.4 |
| 20260504215538 | 60 | 247 | 3.0 | 5.0 | 0.00 | 0.00 | 0.00 | 78 | 1014.4 |
| 20260504215037 | 59 | 248 | 3.0 | 5.0 | 0.00 | 0.00 | 0.00 | 78 | 1014.5 |
| 20260504214545 | 59 | 246 | 2.0 | 5.0 | 0.00 | 0.00 | 0.00 | 76 | 1014.4 |
| 20260504214040 | 59 | 249 | 2.0 | 5.0 | 0.00 | 0.00 | 0.00 | 75 | 1014.4 |
| 20260504213540 | 60 | 219 | 2.0 | 7.0 | 0.00 | 0.00 | 0.00 | 75 | 1014.4 |
| 20260504213047 | 60 | 244 | 3.0 | 7.0 | 0.00 | 0.00 | 0.00 | 74 | 1014.4 |
| 20260504212538 | 60 | 239 | 3.0 | 6.0 | 0.00 | 0.00 | 0.00 | 73 | 1014.3 |
| 20260504212038 | 60 | 285 | 2.0 | 7.0 | 0.00 | 0.00 | 0.00 | 73 | 1014.3 |
| 20260504211546 | 60 | 252 | 3.0 | 7.0 | 0.00 | 0.00 | 0.00 | 73 | 1014.4 |
| 20260504211037 | 60 | 229 | 3.0 | 7.0 | 0.00 | 0.00 | 0.00 | 74 | 1014.4 |
| 20260504210540 | 60 | 216 | 3.0 | 7.0 | 0.00 | 0.00 | 0.00 | 73 | 1014.5 |
| 20260504210059 | 61 | 235 | 3.0 | 8.0 | 0.00 | 0.00 | 0.00 | 73 | 1014.5 |
| 20260504205537 | 61 | 284 | 2.0 | 8.0 | 0.00 | 0.00 | 0.00 | 72 | 1014.5 |
| 20260504205038 | 60 | 238 | 4.0 | 6.0 | 0.00 | 0.00 | 0.00 | 73 | 1014.5 |
| 20260504204549 | 60 | 246 | 3.0 | 7.0 | 0.00 | 0.00 | 0.00 | 73 | 1014.5 |
| 20260504204036 | 61 | 252 | 3.0 | 7.0 | 0.00 | 0.00 | 0.00 | 70 | 1014.6 |
| 20260504203537 | 62 | 298 | 3.0 | 7.0 | 0.00 | 0.00 | 0.00 | 76 | 1014.5 |
| 20260504203055 | 60 | 283 | 3.0 | 6.0 | 0.00 | 0.00 | 0.00 | 78 | 1014.5 |
| 20260504202537 | 60 | 252 | 2.0 | 6.0 | 0.00 | 0.00 | 0.00 | 77 | 1014.5 |
| 20260504202036 | 60 | 239 | 3.0 | 6.0 | 0.00 | 0.00 | 0.00 | 75 | 1014.4 |
| 20260504201547 | 61 | 245 | 3.0 | 8.0 | 0.00 | 0.00 | 0.00 | 75 | 1014.4 |
| 20260504201037 | 61 | 209 | 4.0 | 8.0 | 0.00 | 0.00 | 0.00 | 76 | 1014.5 |
| 20260504200537 | 60 | 298 | 3.0 | 8.0 | 0.00 | 0.00 | 0.00 | 77 | 1014.5 |
| 20260504200045 | 60 | 316 | 2.0 | 7.0 | 0.00 | 0.00 | 0.00 | 76 | 1014.6 |
| 20260504195538 | 60 | 264 | 3.0 | 7.0 | 0.00 | 0.00 | 0.00 | 75 | 1014.6 |
| 20260504195036 | 61 | 242 | 3.0 | 6.0 | 0.00 | 0.00 | 0.00 | 75 | 1014.6 |
| 20260504194545 | 61 | 246 | 3.0 | 8.0 | 0.00 | 0.00 | 0.00 | 74 | 1014.6 |
| 20260504194040 | 60 | 284 | 3.0 | 8.0 | 0.00 | 0.00 | 0.00 | 74 | 1014.6 |
| 20260504193538 | 60 | 259 | 3.0 | 8.0 | 0.00 | 0.00 | 0.00 | 76 | 1014.5 |
| 20260504193043 | 60 | 246 | 3.0 | 9.0 | 0.00 | 0.00 | 0.00 | 75 | 1014.5 |
| 20260504192541 | 60 | 271 | 5.0 | 9.0 | 0.00 | 0.00 | 0.00 | 75 | 1014.5 |
| 20260504192041 | 60 | 296 | 3.0 | 9.0 | 0.00 | 0.00 | 0.00 | 76 | 1014.6 |
| 20260504191543 | 60 | 259 | 5.0 | 9.0 | 0.00 | 0.00 | 0.00 | 76 | 1014.6 |
| 20260504191037 | 60 | 261 | 3.0 | 9.0 | 0.00 | 0.00 | 0.00 | 74 | 1014.6 |
| 20260504190539 | 60 | 258 | 3.0 | 8.0 | 0.00 | 0.00 | 0.00 | 76 | 1014.6 |
| 20260504190107 | 60 | 277 | 3.0 | 8.0 | 0.00 | 0.00 | 0.00 | 77 | 1014.6 |
| 20260504185538 | 60 | 281 | 4.0 | 8.0 | 0.00 | 0.00 | 0.00 | 79 | 1014.6 |
| 20260504185036 | 59 | 247 | 3.0 | 5.0 | 0.00 | 0.00 | 0.00 | 80 | 1014.5 |
| 20260504184545 | 58 | 256 | 2.0 | 5.0 | 0.00 | 0.00 | 0.00 | 81 | 1014.5 |
| 20260504184041 | 58 | 248 | 3.0 | 5.0 | 0.00 | 0.00 | 0.00 | 80 | 1014.5 |
| 20260504183537 | 59 | 243 | 2.0 | 5.0 | 0.00 | 0.00 | 0.00 | 82 | 1014.5 |
| 20260504183045 | 58 | 228 | 2.0 | 5.0 | 0.00 | 0.00 | 0.00 | 84 | 1014.5 |
| 20260504182536 | 57 | 242 | 3.0 | 5.0 | 0.00 | 0.00 | 0.00 | 83 | 1014.4 |
| 20260504182038 | 57 | 238 | 2.0 | 5.0 | 0.00 | 0.00 | 0.00 | 83 | 1014.5 |
| 20260504181544 | 57 | 231 | 2.0 | 5.0 | 0.00 | 0.00 | 0.00 | 83 | 1014.4 |
| 20260504181037 | 57 | 202 | 1.0 | 4.0 | 0.00 | 0.00 | 0.00 | 84 | 1014.5 |
| 20260504180539 | 57 | 239 | 1.0 | 4.0 | 0.00 | 0.00 | 0.00 | 83 | 1014.5 |
| 20260504180052 | 57 | 241 | 2.0 | 4.0 | 0.00 | 0.00 | 0.00 | 83 | 1014.4 |
| 20260504175537 | 58 | 242 | 2.0 | 5.0 | 0.00 | 0.00 | 0.00 | 83 | 1014.3 |
| 20260504175037 | 57 | 258 | 2.0 | 5.0 | 0.00 | 0.00 | 0.00 | 84 | 1014.2 |
| 20260504174553 | 57 | 252 | 2.0 | 5.0 | 0.00 | 0.00 | 0.00 | 84 | 1014.2 |
| 20260504174037 | 57 | 250 | 3.0 | 5.0 | 0.00 | 0.00 | 0.00 | 84 | 1014.2 |
| 20260504173536 | 57 | 250 | 2.0 | 6.0 | 0.00 | 0.00 | 0.00 | 84 | 1014.2 |
| 20260504173044 | 57 | 225 | 3.0 | 8.0 | 0.00 | 0.00 | 0.00 | 84 | 1014.1 |
| 20260504172537 | 58 | 248 | 3.0 | 8.0 | 0.00 | 0.00 | 0.00 | 84 | 1014.0 |
| 20260504172036 | 58 | 241 | 5.0 | 8.0 | 0.00 | 0.00 | 0.00 | 83 | 1013.8 |
| 20260504171546 | 58 | 238 | 4.0 | 9.0 | 0.00 | 0.00 | 0.00 | 83 | 1013.8 |
| 20260504171040 | 58 | 237 | 3.0 | 9.0 | 0.00 | 0.00 | 0.00 | 83 | 1013.7 |
| 20260504170537 | 57 | 234 | 4.0 | 8.0 | 0.00 | 0.00 | 0.00 | 83 | 1013.7 |
| 20260504151037 | 55 | 192 | 2.0 | 4.0 | 0.00 | 0.00 | 0.00 | 86 | 1013.5 |
| 20260504150537 | 55 | 238 | 1.0 | 2.0 | 0.00 | 0.00 | 0.00 | 87 | 1013.6 |
| 20260504141038 | 53 | 42 | 0.0 | 1.0 | 0.00 | 0.00 | 0.00 | 90 | 1013.3 |
| 20260504140538 | 53 | 42 | 0.0 | 1.0 | 0.00 | 0.00 | 0.00 | 90 | 1013.3 |
| 20260504130537 | 52 | 192 | 1.0 | 4.0 | 0.00 | 0.00 | 0.00 | 90 | 1013.1 |
| 20260504110540 | 53 | 192 | 0.0 | 3.0 | 0.00 | 0.00 | 0.00 | 91 | 1013.0 |
| 20260504100536 | 53 | 200 | 1.0 | 3.0 | 0.00 | 0.00 | 0.00 | 91 | 1012.8 |
| 20260504081559 | 53 | 194 | 2.0 | 3.0 | 0.00 | 0.00 | 0.00 | 89 | 1013.4 |
| 20260504081036 | 53 | 194 | 1.0 | 3.0 | 0.00 | 0.00 | 0.00 | 89 | 1013.4 |
| 20260504080537 | 53 | 180 | 2.0 | 4.0 | 0.00 | 0.00 | 0.00 | 89 | 1013.5 |
| 20260504060106 | 54 | 181 | 2.0 | 5.0 | 0.00 | 0.00 | 0.00 | 89 | 1013.4 |
| 20260504050538 | 53 | 219 | 2.0 | 6.0 | 0.00 | 0.00 | 0.00 | 88 | 1013.2 |
| 20260504050111 | 53 | 211 | 3.0 | 6.0 | 0.00 | 0.00 | 0.00 | 88 | 1013.0 |
| 20260504045541 | 54 | 208 | 2.0 | 5.0 | 0.00 | 0.00 | 0.00 | 89 | 1013.1 |
| 20260504045044 | 54 | 240 | 3.0 | 6.0 | 0.00 | 0.00 | 0.00 | 88 | 1013.0 |
| 20260504044551 | 54 | 215 | 3.0 | 6.0 | 0.00 | 0.00 | 0.00 | 88 | 1013.0 |
| 20260504044038 | 54 | 209 | 3.0 | 6.0 | 0.00 | 0.00 | 0.00 | 88 | 1012.9 |
| 20260504043538 | 54 | 217 | 2.0 | 6.0 | 0.00 | 0.00 | 0.00 | 88 | 1013.0 |
| 20260504043047 | 54 | 234 | 3.0 | 6.0 | 0.00 | 0.00 | 0.00 | 88 | 1012.9 |
| 20260504042537 | 54 | 221 | 2.0 | 8.0 | 0.00 | 0.00 | 0.00 | 88 | 1012.8 |
| 20260504042039 | 54 | 244 | 3.0 | 8.0 | 0.00 | 0.00 | 0.00 | 88 | 1012.8 |
| 20260504041550 | 54 | 237 | 4.0 | 8.0 | 0.00 | 0.00 | 0.00 | 88 | 1012.8 |
| 20260504041038 | 54 | 217 | 4.0 | 7.0 | 0.00 | 0.00 | 0.00 | 87 | 1012.8 |
| 20260504040538 | 55 | 219 | 2.0 | 7.0 | 0.00 | 0.00 | 0.00 | 87 | 1012.8 |
| 20260504040053 | 55 | 227 | 3.0 | 7.0 | 0.00 | 0.00 | 0.00 | 87 | 1012.8 |
| 20260504035538 | 55 | 247 | 3.0 | 7.0 | 0.00 | 0.00 | 0.00 | 87 | 1012.7 |
| 20260504035038 | 55 | 220 | 4.0 | 7.0 | 0.00 | 0.00 | 0.00 | 87 | 1012.5 |
| 20260504034551 | 55 | 231 | 4.0 | 6.0 | 0.00 | 0.00 | 0.00 | 87 | 1012.4 |
| 20260504034038 | 55 | 235 | 3.0 | 7.0 | 0.00 | 0.00 | 0.00 | 86 | 1012.3 |
| 20260504033538 | 54 | 218 | 3.0 | 11.0 | 0.00 | 0.00 | 0.00 | 86 | 1012.3 |
| 20260504033056 | 54 | 228 | 5.0 | 11.0 | 0.00 | 0.00 | 0.00 | 85 | 1012.3 |
| 20260504032538 | 54 | 205 | 5.0 | 11.0 | 0.00 | 0.00 | 0.00 | 85 | 1012.3 |
| 20260504032042 | 54 | 219 | 5.0 | 11.0 | 0.00 | 0.00 | 0.00 | 84 | 1012.2 |
| 20260504031546 | 54 | 208 | 6.0 | 11.0 | 0.00 | 0.00 | 0.00 | 84 | 1012.2 |
| 20260504031038 | 55 | 184 | 5.0 | 11.0 | 0.00 | 0.00 | 0.00 | 84 | 1012.1 |
| 20260504030539 | 55 | 213 | 5.0 | 9.0 | 0.00 | 0.00 | 0.00 | 84 | 1012.2 |
| 20260504030051 | 55 | 201 | 4.0 | 7.0 | 0.00 | 0.00 | 0.00 | 84 | 1012.1 |
| 20260504025539 | 55 | 237 | 4.0 | 9.0 | 0.00 | 0.00 | 0.00 | 83 | 1012.0 |
| 20260504025039 | 55 | 223 | 5.0 | 13.0 | 0.00 | 0.00 | 0.00 | 83 | 1012.0 |
| 20260504024550 | 55 | 213 | 5.0 | 13.0 | 0.00 | 0.00 | 0.00 | 83 | 1012.0 |
| 20260504024037 | 55 | 204 | 6.0 | 10.0 | 0.00 | 0.00 | 0.00 | 83 | 1011.9 |
| 20260504023539 | 56 | 173 | 5.0 | 9.0 | 0.00 | 0.00 | 0.00 | 83 | 1012.0 |
| 20260504023054 | 56 | 190 | 4.0 | 9.0 | 0.00 | 0.00 | 0.00 | 82 | 1012.0 |
| 20260504022539 | 56 | 225 | 5.0 | 9.0 | 0.00 | 0.00 | 0.00 | 82 | 1012.1 |
| 20260504022037 | 56 | 207 | 4.0 | 9.0 | 0.00 | 0.00 | 0.00 | 82 | 1012.0 |
| 20260504021551 | 56 | 220 | 3.0 | 9.0 | 0.00 | 0.00 | 0.00 | 82 | 1011.9 |
| 20260504021040 | 56 | 226 | 4.0 | 9.0 | 0.00 | 0.00 | 0.00 | 81 | 1011.9 |
| 20260504020538 | 56 | 227 | 5.0 | 9.0 | 0.00 | 0.00 | 0.00 | 81 | 1011.9 |
| 20260504020052 | 57 | 233 | 3.0 | 9.0 | 0.00 | 0.00 | 0.00 | 80 | 1011.9 |
| 20260504015538 | 57 | 211 | 4.0 | 9.0 | 0.00 | 0.00 | 0.00 | 80 | 1011.9 |
| 20260504015038 | 57 | 190 | 5.0 | 10.0 | 0.00 | 0.00 | 0.00 | 81 | 1012.0 |
| 20260504014554 | 57 | 207 | 6.0 | 10.0 | 0.00 | 0.00 | 0.00 | 81 | 1011.9 |
| 20260504014041 | 57 | 237 | 4.0 | 9.0 | 0.00 | 0.00 | 0.00 | 81 | 1011.9 |
| 20260504013538 | 58 | 238 | 4.0 | 9.0 | 0.00 | 0.00 | 0.00 | 82 | 1012.0 |
| 20260504013048 | 58 | 211 | 4.0 | 8.0 | 0.00 | 0.00 | 0.00 | 82 | 1012.1 |
| 20260504012538 | 57 | 225 | 4.0 | 8.0 | 0.00 | 0.00 | 0.00 | 82 | 1012.1 |
| 20260504012038 | 57 | 252 | 5.0 | 8.0 | 0.00 | 0.00 | 0.00 | 81 | 1012.2 |
| 20260504011549 | 57 | 229 | 4.0 | 9.0 | 0.00 | 0.00 | 0.00 | 82 | 1012.2 |
| 20260504011037 | 58 | 227 | 4.0 | 10.0 | 0.00 | 0.00 | 0.00 | 82 | 1012.2 |
| 20260504010537 | 58 | 242 | 5.0 | 10.0 | 0.00 | 0.00 | 0.00 | 82 | 1012.1 |
| 20260504010107 | 58 | 216 | 5.0 | 9.0 | 0.00 | 0.00 | 0.00 | 81 | 1012.1 |
| 20260504005538 | 58 | 210 | 5.0 | 9.0 | 0.00 | 0.00 | 0.00 | 80 | 1012.0 |
| 20260504005039 | 58 | 232 | 5.0 | 9.0 | 0.00 | 0.00 | 0.00 | 80 | 1012.0 |
| 20260504004549 | 58 | 238 | 5.0 | 10.0 | 0.00 | 0.00 | 0.00 | 80 | 1012.0 |
| 20260504004037 | 59 | 190 | 5.0 | 10.0 | 0.00 | 0.00 | 0.00 | 79 | 1012.1 |
| 20260504003538 | 59 | 244 | 4.0 | 10.0 | 0.00 | 0.00 | 0.00 | 79 | 1012.0 |
| 20260504003047 | 59 | 240 | 5.0 | 11.0 | 0.00 | 0.00 | 0.00 | 79 | 1011.9 |
| 20260504002538 | 59 | 225 | 6.0 | 11.0 | 0.00 | 0.00 | 0.00 | 79 | 1011.9 |
| 20260504002038 | 59 | 211 | 5.0 | 9.0 | 0.00 | 0.00 | 0.00 | 78 | 1011.8 |
| 20260504001559 | 60 | 216 | 4.0 | 11.0 | 0.00 | 0.00 | 0.00 | 77 | 1011.8 |
| 20260504001040 | 59 | 238 | 5.0 | 11.0 | 0.00 | 0.00 | 0.00 | 78 | 1011.8 |
| 20260504000538 | 60 | 233 | 5.0 | 10.0 | 0.00 | 0.00 | 0.00 | 77 | 1011.7 |
| 20260504000056 | 59 | 237 | 6.0 | 11.0 | 0.00 | 0.00 | 0.00 | 78 | 1011.7 |
| 20260503235542 | 60 | 255 | 5.0 | 11.0 | 0.00 | 0.00 | 0.00 | 76 | 1011.6 |
| 20260503235037 | 60 | 233 | 5.0 | 10.0 | 0.00 | 0.00 | 0.00 | 77 | 1011.6 |
| 20260503234539 | 60 | 211 | 5.0 | 10.0 | 0.00 | 0.00 | 0.00 | 76 | 1011.6 |
| 20260503234038 | 60 | 198 | 4.0 | 10.0 | 0.00 | 0.00 | 0.00 | 78 | 1011.6 |
| 20260503233538 | 59 | 225 | 5.0 | 12.0 | 0.00 | 0.00 | 0.00 | 77 | 1011.7 |
| 20260503233052 | 59 | 223 | 7.0 | 12.0 | 0.00 | 0.00 | 0.00 | 77 | 1011.7 |
| 20260503232537 | 59 | 211 | 6.0 | 10.0 | 0.00 | 0.00 | 0.00 | 77 | 1011.7 |
| 20260503232037 | 58 | 217 | 5.0 | 10.0 | 0.00 | 0.00 | 0.00 | 78 | 1011.7 |
| 20260503231545 | 58 | 208 | 5.0 | 10.0 | 0.00 | 0.00 | 0.00 | 77 | 1011.7 |
| 20260503231039 | 59 | 228 | 6.0 | 11.0 | 0.00 | 0.00 | 0.00 | 76 | 1011.6 |
| 20260503230539 | 59 | 261 | 5.0 | 11.0 | 0.00 | 0.00 | 0.00 | 77 | 1011.6 |
| 20260503230044 | 60 | 212 | 6.0 | 11.0 | 0.00 | 0.00 | 0.00 | 76 | 1011.7 |